When you browse on this site, cookies collect data to enhance your experience and personalize the content and advertising you see.
Visit our Privacy Policy to learn more. By continuing to use the site, you agree to this use of cookies and data.

Stündliche Wetter Tetepango

Heute, 14 Juli, Dienstag

Zeit Temperatur Niederschläge Wind Luftdruck Luftfeuchtigkeit
00:00 +13°C° 0 mm 0 m/S 589 mmHg 85%
01:00 +12°C° 0 mm 0 m/S 588 mmHg 86%
02:00 +12°C° 0 mm 0 m/S 588 mmHg 87%
03:00 +12°C° 0 mm 0 m/S 588 mmHg 87%
04:00 +11°C° 0 mm 0 m/S 588 mmHg 86%
05:00 +12°C° 0 mm 1 m/S 588 mmHg 85%
06:00 +13°C° 0 mm 0 m/S 589 mmHg 76%
07:00 +16°C° 0 mm 0 m/S 590 mmHg 68%
08:00 +18°C° 0 mm 0 m/S 591 mmHg 59%
09:00 +22°C° 0 mm 1 m/S 592 mmHg 53%
10:00 +23°C° 0 mm 1 m/S 592 mmHg 47%
11:00 +25°C° 0 mm 1 m/S 593 mmHg 41%
12:00 +26°C° 0.1 mm 2 m/S 593 mmHg 41%
13:00 +26°C° 0.1 mm 3 m/S 592 mmHg 40%
14:00 +27°C° 0.1 mm 4 m/S 592 mmHg 40%
15:00 +25°C° 0.9 mm 5 m/S 592 mmHg 48%
16:00 +23°C° 0.9 mm 5 m/S 591 mmHg 56%
17:00 +22°C° 0.9 mm 5 m/S 590 mmHg 64%
18:00 +20°C° 0.9 mm 4 m/S 590 mmHg 72%
19:00 +19°C° 0.9 mm 3 m/S 590 mmHg 80%
20:00 +17°C° 0.9 mm 2 m/S 590 mmHg 87%
21:00 +16°C° 0.1 mm 2 m/S 590 mmHg 89%
22:00 +16°C° 0.1 mm 1 m/S 590 mmHg 91%
23:00 +14°C° 0.1 mm 0 m/S 590 mmHg 93%

Morgen, 15 Juli, Mittwoch

Zeit Temperatur Niederschläge Wind Luftdruck Luftfeuchtigkeit
00:00 +14°C° 0 mm 0 m/S 589 mmHg 93%
01:00 +14°C° 0 mm 0 m/S 589 mmHg 94%
02:00 +13°C° 0 mm 0 m/S 588 mmHg 94%
03:00 +13°C° 0 mm 0 m/S 588 mmHg 94%
04:00 +13°C° 0 mm 0 m/S 588 mmHg 94%
05:00 +12°C° 0 mm 0 m/S 588 mmHg 94%
06:00 +14°C° 0 mm 0 m/S 589 mmHg 87%
07:00 +16°C° 0 mm 0 m/S 590 mmHg 79%
08:00 +18°C° 0 mm 0 m/S 591 mmHg 71%
09:00 +22°C° 0.1 mm 1 m/S 592 mmHg 64%
10:00 +24°C° 0.1 mm 1 m/S 592 mmHg 58%
11:00 +25°C° 0.1 mm 2 m/S 593 mmHg 51%
12:00 +25°C° 0.4 mm 3 m/S 592 mmHg 50%
13:00 +25°C° 0.4 mm 3 m/S 592 mmHg 49%
14:00 +26°C° 0.4 mm 4 m/S 592 mmHg 48%
15:00 +25°C° 0.8 mm 4 m/S 591 mmHg 53%
16:00 +22°C° 0.8 mm 4 m/S 590 mmHg 59%
17:00 +21°C° 0.8 mm 4 m/S 590 mmHg 65%
18:00 +20°C° 1.2 mm 3 m/S 590 mmHg 72%
19:00 +19°C° 1.2 mm 2 m/S 590 mmHg 79%
20:00 +17°C° 1.2 mm 2 m/S 590 mmHg 85%
21:00 +16°C° 0.4 mm 1 m/S 590 mmHg 88%
22:00 +16°C° 0.4 mm 1 m/S 590 mmHg 90%
23:00 +15°C° 0.4 mm 1 m/S 590 mmHg 93%

übermorgen, 16 Juli, Donnerstag

Zeit Temperatur Niederschläge Wind Luftdruck Luftfeuchtigkeit
00:00 +15°C° 0 mm 1 m/S 589 mmHg 94%
01:00 +14°C° 0 mm 1 m/S 589 mmHg 95%
02:00 +13°C° 0 mm 0 m/S 589 mmHg 96%
03:00 +13°C° 0 mm 0 m/S 589 mmHg 96%
04:00 +13°C° 0 mm 0 m/S 589 mmHg 95%
05:00 +13°C° 0 mm 0 m/S 589 mmHg 95%
06:00 +14°C° 0 mm 0 m/S 590 mmHg 89%
07:00 +16°C° 0 mm 0 m/S 591 mmHg 84%
08:00 +17°C° 0 mm 0 m/S 591 mmHg 78%
09:00 +21°C° 0.1 mm 1 m/S 592 mmHg 69%
10:00 +23°C° 0.1 mm 2 m/S 592 mmHg 61%
11:00 +24°C° 0.1 mm 2 m/S 593 mmHg 53%
12:00 +25°C° 0.1 mm 4 m/S 593 mmHg 52%
13:00 +25°C° 0.1 mm 5 m/S 592 mmHg 52%
14:00 +24°C° 0.1 mm 6 m/S 592 mmHg 52%
15:00 +23°C° 1.2 mm 6 m/S 591 mmHg 58%
16:00 +22°C° 1.2 mm 6 m/S 591 mmHg 65%
17:00 +20°C° 1.2 mm 5 m/S 590 mmHg 71%
18:00 +19°C° 1 mm 4 m/S 590 mmHg 77%
19:00 +17°C° 1 mm 4 m/S 590 mmHg 83%
20:00 +16°C° 1 mm 3 m/S 590 mmHg 89%
21:00 +15°C° 0.1 mm 2 m/S 590 mmHg 91%
22:00 +15°C° 0.1 mm 2 m/S 590 mmHg 92%
23:00 +14°C° 0.1 mm 1 m/S 590 mmHg 93%

17 Juli, Freitag

Zeit Temperatur Niederschläge Wind Luftdruck Luftfeuchtigkeit
00:00 +14°C° 0 mm 1 m/S 590 mmHg 94%
01:00 +14°C° 0 mm 1 m/S 589 mmHg 95%
02:00 +12°C° 0 mm 0 m/S 589 mmHg 96%
03:00 +13°C° 0 mm 0 m/S 589 mmHg 94%
04:00 +13°C° 0 mm 0 m/S 589 mmHg 92%
05:00 +13°C° 0 mm 0 m/S 590 mmHg 90%
06:00 +14°C° 0 mm 0 m/S 590 mmHg 84%
07:00 +15°C° 0 mm 0 m/S 591 mmHg 78%
08:00 +16°C° 0 mm 0 m/S 591 mmHg 72%
09:00 +20°C° 0 mm 1 m/S 592 mmHg 65%
10:00 +21°C° 0 mm 1 m/S 592 mmHg 58%
11:00 +23°C° 0 mm 1 m/S 593 mmHg 51%
12:00 +24°C° 0.1 mm 2 m/S 593 mmHg 48%
13:00 +24°C° 0.1 mm 3 m/S 592 mmHg 46%
14:00 +25°C° 0.1 mm 4 m/S 592 mmHg 43%
15:00 +22°C° 0.8 mm 5 m/S 591 mmHg 50%
16:00 +21°C° 0.8 mm 5 m/S 591 mmHg 58%
17:00 +20°C° 0.8 mm 5 m/S 590 mmHg 65%
18:00 +18°C° 0.7 mm 4 m/S 590 mmHg 71%
19:00 +17°C° 0.7 mm 3 m/S 590 mmHg 77%
20:00 +16°C° 0.7 mm 2 m/S 590 mmHg 83%
21:00 +16°C° 0.3 mm 1 m/S 590 mmHg 83%
22:00 +16°C° 0.3 mm 1 m/S 590 mmHg 82%
23:00 +16°C° 0.3 mm 1 m/S 590 mmHg 82%

18 Juli, Samstag

Zeit Temperatur Niederschläge Wind Luftdruck Luftfeuchtigkeit
00:00 +15°C° 0.2 mm 1 m/S 590 mmHg 83%
01:00 +15°C° 0.2 mm 1 m/S 590 mmHg 83%
02:00 +15°C° 0.2 mm 1 m/S 590 mmHg 83%
03:00 +15°C° 0.1 mm 1 m/S 590 mmHg 83%
04:00 +14°C° 0.1 mm 0 m/S 590 mmHg 84%
05:00 +14°C° 0.1 mm 0 m/S 590 mmHg 84%
06:00 +15°C° 0 mm 0 m/S 590 mmHg 78%
07:00 +16°C° 0 mm 0 m/S 591 mmHg 72%
08:00 +17°C° 0 mm 0 m/S 591 mmHg 66%
09:00 +20°C° 0.2 mm 1 m/S 592 mmHg 60%
10:00 +21°C° 0.2 mm 2 m/S 592 mmHg 54%
11:00 +22°C° 0.2 mm 3 m/S 592 mmHg 48%
12:00 +23°C° 0.2 mm 4 m/S 592 mmHg 46%
13:00 +23°C° 0.2 mm 5 m/S 592 mmHg 44%
14:00 +24°C° 0.2 mm 6 m/S 591 mmHg 42%
15:00 +22°C° 0.2 mm 6 m/S 591 mmHg 49%
16:00 +21°C° 0.2 mm 6 m/S 590 mmHg 55%
17:00 +20°C° 0.2 mm 6 m/S 590 mmHg 62%
18:00 +17°C° 0.1 mm 5 m/S 590 mmHg 68%
19:00 +16°C° 0.1 mm 3 m/S 590 mmHg 75%
20:00 +15°C° 0.1 mm 2 m/S 589 mmHg 81%
21:00 +14°C° 0 mm 2 m/S 589 mmHg 85%
22:00 +14°C° 0 mm 1 m/S 589 mmHg 89%
23:00 +13°C° 0 mm 1 m/S 589 mmHg 93%

19 Juli, Sonntag

Zeit Temperatur Niederschläge Wind Luftdruck Luftfeuchtigkeit
00:00 +13°C° 0 mm 1 m/S 589 mmHg 93%
01:00 +12°C° 0 mm 0 m/S 589 mmHg 93%
02:00 +12°C° 0 mm 0 m/S 588 mmHg 93%
03:00 +12°C° 0 mm 0 m/S 588 mmHg 93%
04:00 +11°C° 0 mm 0 m/S 588 mmHg 93%
05:00 +11°C° 0 mm 0 m/S 588 mmHg 93%
06:00 +13°C° 0 mm 0 m/S 589 mmHg 84%
07:00 +15°C° 0 mm 0 m/S 590 mmHg 74%
08:00 +17°C° 0 mm 0 m/S 591 mmHg 65%
09:00 +20°C° 0 mm 1 m/S 592 mmHg 58%
10:00 +21°C° 0 mm 2 m/S 592 mmHg 52%
11:00 +24°C° 0 mm 2 m/S 592 mmHg 45%
12:00 +24°C° 0 mm 3 m/S 592 mmHg 44%
13:00 +25°C° 0 mm 4 m/S 592 mmHg 43%
14:00 +25°C° 0 mm 5 m/S 592 mmHg 42%
15:00 +23°C° 0.3 mm 5 m/S 591 mmHg 51%
16:00 +22°C° 0.3 mm 5 m/S 590 mmHg 60%
17:00 +20°C° 0.3 mm 5 m/S 590 mmHg 69%
18:00 +19°C° 0.6 mm 4 m/S 590 mmHg 75%
19:00 +17°C° 0.6 mm 3 m/S 589 mmHg 82%
20:00 +16°C° 0.6 mm 2 m/S 589 mmHg 89%
21:00 +15°C° 0 mm 2 m/S 589 mmHg 91%
22:00 +15°C° 0 mm 1 m/S 589 mmHg 93%
23:00 +14°C° 0 mm 1 m/S 589 mmHg 95%
Mehr zeigen